Weather History for Pontiac, MI

Change the Weather History Date:

Friday, February 15, 2013

  Actual Average Record
Temperature  
Mean Temperature 26 °F -  
Max Temperature 32 °F 32 °F 48 °F (1999)
Min Temperature 19 °F 18 °F 0 °F (2007)
Degree Days  
Heating Degree Days 38    
Moisture  
Dew Point 16 °F    
Average Humidity 69    
Maximum Humidity 86    
Minimum Humidity 53    
Precipitation  
Precipitation 0.00 in - - ()
Sea Level Pressure  
Sea Level Pressure 30.01 in    
Wind  
Wind Speed 13 mph (WNW)    
Max Wind Speed 20 mph    
Max Gust Speed 28 mph    
Visibility 10 miles    
Events Snow    
Averages and records for this station are not official NWS values.
T = Trace of Precipitation, MM = Missing Value Source: NWS Daily Summary

Daily Weather History Graph

Daily Weather History Graph

Search for Another Location

Airport:

Trip Planner

Search our weather history database for the weather conditions in past years. The results will help you decide how hot, cold, wet, or windy it might be!

Date:

Astronomy

Feb. 15, 2013 Rise Set
Actual Time 7:30 AM EST 6:05 PM EST
Civil Twilight 7:01 AM EST 6:34 PM EST
Nautical Twilight 6:28 AM EST 7:07 PM EST
Astronomical Twilight 5:55 AM EST 7:40 PM EST
Moon 9:57 AM EST (2/15) No Moon Set
Length of Visible Light 11h 33m
Length of Day
10h 35m
Waxing Crescent, 30% of the Moon is Illuminated
Feb 15
Waxing Crescent
Feb 17
First Quarter
Feb 25
Full
Mar 4
Last Quarter
Mar 11
New

Hourly Weather History & Observations

Time (EST) Temp. Windchill Dew Point Humidity Pressure Visibility Wind Dir Wind Speed Gust Speed Precip Events Conditions
12:53 AM 32.0 °F 20.5 °F 27.0 °F 82% 29.83 in 10.0 mi WNW 18.4 mph 27.6 mph N/A   Overcast
1:53 AM 30.9 °F 22.8 °F 24.1 °F 76% 29.86 in 10.0 mi WNW 9.2 mph - N/A   Overcast
2:53 AM 30.0 °F 21.1 °F 23.0 °F 75% 29.88 in 10.0 mi WNW 10.4 mph - N/A   Overcast
3:46 AM 28.4 °F 17.5 °F 21.2 °F 74% 29.87 in 10.0 mi West 13.8 mph - N/A   Scattered Clouds
3:53 AM 28.0 °F 16.1 °F 21.0 °F 75% 29.90 in 10.0 mi West 16.1 mph - N/A   Partly Cloudy
4:44 AM 26.6 °F 14.7 °F 19.4 °F 74% 29.89 in 10.0 mi West 15.0 mph - N/A   Mostly Cloudy
4:53 AM 26.1 °F 15.0 °F 19.9 °F 78% 29.93 in 10.0 mi WNW 12.7 mph - N/A   Mostly Cloudy
5:23 AM 26.6 °F 16.8 °F 19.4 °F 74% 29.91 in 10.0 mi NW 10.4 mph - N/A   Overcast
5:53 AM 25.0 °F 13.6 °F 19.0 °F 78% 29.96 in 10.0 mi WNW 12.7 mph - N/A   Overcast
6:48 AM 24.8 °F 14.6 °F 17.6 °F 74% 29.94 in 10.0 mi WNW 10.4 mph - N/A   Overcast
6:53 AM 25.0 °F 15.5 °F 18.0 °F 75% 29.98 in 10.0 mi WNW 9.2 mph - N/A   Overcast
7:31 AM 24.8 °F 15.3 °F 19.4 °F 80% 29.96 in 10.0 mi WNW 9.2 mph - N/A   Overcast
7:40 AM 24.8 °F 14.0 °F 17.6 °F 74% 29.96 in 10.0 mi WNW 11.5 mph - N/A   Overcast
7:49 AM 24.8 °F 14.0 °F 17.6 °F 74% 29.97 in 10.0 mi WNW 11.5 mph - N/A   Mostly Cloudy
7:53 AM 24.1 °F 13.7 °F 17.1 °F 75% 30.00 in 10.0 mi WNW 10.4 mph - N/A   Mostly Cloudy
8:53 AM 23.0 °F 11.1 °F 12.9 °F 65% 30.03 in 10.0 mi WNW 12.7 mph - N/A   Overcast
9:53 AM 25.0 °F 14.2 °F 12.9 °F 60% 30.04 in 10.0 mi WNW 11.5 mph - N/A   Scattered Clouds
10:53 AM 26.1 °F 14.0 °F 14.0 °F 60% 30.05 in 10.0 mi NW 15.0 mph - N/A   Mostly Cloudy
11:53 AM 26.1 °F 12.3 °F 12.9 °F 58% 30.06 in 10.0 mi West 19.6 mph - N/A   Mostly Cloudy
12:53 PM 27.0 °F 14.3 °F 12.0 °F 53% 30.05 in 10.0 mi West 17.3 mph 21.9 mph N/A   Mostly Cloudy
1:53 PM 27.0 °F 16.7 °F 12.0 °F 53% 30.05 in 10.0 mi WNW 11.5 mph - N/A   Mostly Cloudy
2:53 PM 26.1 °F 13.6 °F 10.9 °F 53% 30.06 in 10.0 mi NW 16.1 mph 24.2 mph N/A   Overcast
3:53 PM 26.1 °F 14.0 °F 10.9 °F 53% 30.07 in 10.0 mi WNW 15.0 mph 21.9 mph 0.00 in   Overcast
4:53 PM 25.0 °F 13.1 °F 10.9 °F 55% 30.08 in 10.0 mi NW 13.8 mph - N/A   Overcast
5:53 PM 25.0 °F 14.8 °F 10.9 °F 55% 30.10 in 10.0 mi WNW 10.4 mph - N/A   Overcast
6:53 PM 25.0 °F 16.3 °F 10.9 °F 55% 30.11 in 10.0 mi WNW 8.1 mph - N/A   Overcast
7:53 PM 25.0 °F 14.8 °F 12.0 °F 58% 30.11 in 10.0 mi West 10.4 mph - N/A   Overcast
8:53 PM 25.0 °F 18.1 °F 12.9 °F 60% 30.11 in 10.0 mi WNW 5.8 mph - N/A   Overcast
9:53 PM 24.1 °F 15.2 °F 12.9 °F 62% 30.11 in 10.0 mi WNW 8.1 mph - 0.00 in   Overcast
10:46 PM 21.2 °F 9.5 °F 17.6 °F 86% 30.07 in 2.0 mi WNW 11.5 mph - 0.00 in Snow Light Snow
10:53 PM 21.9 °F 8.7 °F 18.0 °F 85% 30.11 in 2.0 mi WNW 15.0 mph 20.7 mph 0.00 in Snow Light Snow
11:34 PM 21.2 °F 11.7 °F 15.8 °F 80% 30.06 in 9.0 mi WNW 8.1 mph - 0.00 in   Overcast
11:53 PM 19.9 °F 12.1 °F 14.0 °F 78% 30.11 in 10.0 mi WNW 5.8 mph - 0.00 in   Overcast